Weather History for Sleetmute, AK

Change the Weather History Date:

Tuesday, May 28, 2013

  Actual Average Record
Temperature  
Mean Temperature 61 °F -  
Max Temperature 80 °F 55 °F 80 °F (2013)
Min Temperature 42 °F 36 °F 32 °F (1997)
Degree Days  
Heating Degree Days 4    
Growing Degree Days 11 (Base 50)    
Moisture  
Dew Point 37 °F    
Average Humidity 40    
Maximum Humidity 76    
Minimum Humidity 21    
Precipitation  
Precipitation 0.00 in - - ()
Sea Level Pressure  
Sea Level Pressure 29.79 in    
Wind  
Wind Speed 1 mph (NNW)    
Max Wind Speed 6 mph    
Max Gust Speed -    
Visibility 10 miles    
Events      
Averages and records for this station are not official NWS values.
T = Trace of Precipitation, MM = Missing Value Source: NWS Daily Summary

Daily Weather History Graph

Daily Weather History Graph

Search for Another Location

Airport:

Trip Planner

Search our weather history database for the weather conditions in past years. The results will help you decide how hot, cold, wet, or windy it might be!

Date:

Astronomy

May. 28, 2013 Rise Set
Actual Time 5:05 AM AKDT 11:47 PM AKDT
Civil Twilight 3:22 AM AKDT 1:35 AM AKDT
Nautical Twilight Sun does not rise Sun does not rise
Astronomical Twilight Sun does not rise Sun does not rise
Moon 1:57 AM AKDT (5/28) 9:48 AM AKDT (5/28)
Length of Visible Light 22h 13m
Length of Day
18h 42m
Waning Gibbous, 81% of the Moon is Illuminated
May 28
Waning Gibbous
May 31
Last Quarter
Jun 8
New
Jun 16
First Quarter
Jun 23
Full

Hourly Weather History & Observations

Time (AKDT) Temp. Windchill Dew Point Humidity Pressure Visibility Wind Dir Wind Speed Gust Speed Precip Events Conditions
12:16 AM 57.2 °F - 37.4 °F 48% 29.81 in 10.0 mi Calm Calm - N/A   Overcast
12:36 AM 57.2 °F - 37.4 °F 48% 29.82 in 10.0 mi Calm Calm - N/A   Overcast
12:56 AM 55.4 °F - 37.4 °F 51% 29.82 in 10.0 mi Calm Calm - N/A   Overcast
1:16 AM 55.4 °F - 37.4 °F 51% 29.82 in 10.0 mi Calm Calm - N/A   Overcast
1:36 AM 55.4 °F - 37.4 °F 51% 29.82 in 10.0 mi Calm Calm - N/A   Overcast
1:56 AM 55.4 °F - 37.4 °F 51% 29.82 in 10.0 mi Calm Calm - N/A   Overcast
2:36 AM 53.6 °F - 35.6 °F 51% 29.82 in 10.0 mi NNW 3.5 mph - N/A   Overcast
2:56 AM 53.6 °F - 37.4 °F 54% 29.82 in 10.0 mi Calm Calm - N/A   Overcast
3:16 AM 51.8 °F - 35.6 °F 54% 29.82 in 10.0 mi Calm Calm - N/A   Overcast
3:36 AM 48.2 °F - 37.4 °F 66% 29.82 in 10.0 mi Calm Calm - N/A   Overcast
3:56 AM 48.2 °F - 35.6 °F 62% 29.82 in 10.0 mi Calm Calm - N/A   Overcast
4:16 AM 48.2 °F - 35.6 °F 62% 29.82 in 10.0 mi Calm Calm - N/A   Overcast
4:56 AM 44.6 °F - 35.6 °F 71% 29.83 in 10.0 mi Calm Calm - N/A   Overcast
5:16 AM 42.8 °F - 35.6 °F 76% 29.83 in 10.0 mi Calm Calm - N/A   Overcast
5:36 AM 42.8 °F - 35.6 °F 76% 29.84 in 10.0 mi Calm Calm - N/A   Overcast
5:56 AM 42.8 °F - 35.6 °F 76% 29.84 in 10.0 mi Calm Calm - N/A   Overcast
6:16 AM 42.8 °F - 35.6 °F 76% 29.84 in 10.0 mi Calm Calm - N/A   Overcast
6:36 AM 44.6 °F 42.2 °F 35.6 °F 71% 29.84 in 10.0 mi North 4.6 mph - N/A   Overcast
6:56 AM 46.4 °F 45.2 °F 35.6 °F 66% 29.83 in 10.0 mi North 3.5 mph - N/A   Overcast
7:16 AM 48.2 °F - 35.6 °F 62% 29.84 in 10.0 mi North 3.5 mph - N/A   Overcast
7:36 AM 50.0 °F - 35.6 °F 58% 29.84 in 7.0 mi North 3.5 mph - N/A   Overcast
7:56 AM 51.8 °F - 37.4 °F 58% 29.83 in 10.0 mi North 5.8 mph - N/A   Overcast
8:16 AM 53.6 °F - 37.4 °F 54% 29.83 in 3.0 mi NNE 3.5 mph - N/A   Overcast
9:16 AM 59.0 °F - 37.4 °F 45% 29.83 in 10.0 mi NNE 4.6 mph - N/A   Overcast
9:36 AM 62.6 °F - 39.2 °F 42% 29.82 in 10.0 mi North 3.5 mph - N/A   Overcast
9:56 AM 64.4 °F - 37.4 °F 37% 29.82 in 10.0 mi NNW 3.5 mph - N/A   Overcast
10:36 AM 66.2 °F - 39.2 °F 37% 29.82 in 10.0 mi Calm Calm - N/A   Overcast
10:56 AM 69.8 °F - 39.2 °F 33% 29.82 in 10.0 mi Calm Calm - N/A   Overcast
11:36 AM 71.6 °F - 39.2 °F 31% 29.81 in 10.0 mi West 3.5 mph - N/A   Overcast
11:56 AM 71.6 °F - 39.2 °F 31% 29.81 in 10.0 mi Calm Calm - N/A   Overcast
12:36 PM 73.4 °F - 37.4 °F 27% 29.80 in 10.0 mi NNE 5.8 mph - N/A   Overcast
12:56 PM 75.2 °F - 37.4 °F 25% 29.80 in 10.0 mi Calm Calm - N/A   Overcast
1:16 PM 75.2 °F - 37.4 °F 25% 29.79 in 10.0 mi ENE 3.5 mph - N/A   Overcast
1:36 PM 75.2 °F - 37.4 °F 25% 29.78 in 10.0 mi Calm Calm - N/A   Overcast
2:16 PM 75.2 °F - 35.6 °F 24% 29.78 in 10.0 mi WNW 3.5 mph - N/A   Overcast
2:36 PM 77.0 °F - 37.4 °F 24% 29.78 in 10.0 mi NNW 3.5 mph - N/A   Overcast
2:56 PM 77.0 °F - 37.4 °F 24% 29.78 in 10.0 mi SSW 5.8 mph - N/A   Overcast
3:16 PM 77.0 °F - 35.6 °F 22% 29.77 in 10.0 mi North 3.5 mph - N/A   Overcast
3:36 PM 78.8 °F - 35.6 °F 21% 29.77 in 10.0 mi Calm Calm - N/A   Overcast
3:56 PM 77.0 °F - 35.6 °F 22% 29.77 in 10.0 mi SW 3.5 mph - N/A   Overcast
4:16 PM 77.0 °F - 33.8 °F 21% 29.76 in 10.0 mi Calm Calm - N/A   Overcast
4:56 PM 78.8 °F - 35.6 °F 21% 29.75 in 10.0 mi NNW 5.8 mph - N/A   Overcast
5:16 PM 78.8 °F - 35.6 °F 21% 29.75 in 10.0 mi West 3.5 mph - N/A   Overcast
5:56 PM 78.8 °F - 35.6 °F 21% 29.74 in 10.0 mi West 3.5 mph - N/A   Overcast
6:36 PM 80.6 °F - 37.4 °F 21% 29.73 in 10.0 mi Calm Calm - N/A   Overcast
7:16 PM 78.8 °F - 35.6 °F 21% 29.72 in 10.0 mi Calm Calm - N/A   Overcast
7:36 PM 78.8 °F - 35.6 °F 21% 29.72 in 10.0 mi NW 3.5 mph - N/A   Overcast
8:16 PM 78.8 °F - 37.4 °F 23% 29.72 in 10.0 mi NW 3.5 mph - N/A   Overcast
8:36 PM 78.8 °F - 35.6 °F 21% 29.72 in 10.0 mi WNW 3.5 mph - N/A   Overcast
8:56 PM 77.0 °F - 37.4 °F 24% 29.72 in 10.0 mi Calm Calm - N/A   Overcast
9:16 PM 77.0 °F - 35.6 °F 22% 29.72 in 10.0 mi NW 3.5 mph - N/A   Overcast
9:56 PM 73.4 °F - 37.4 °F 27% 29.73 in 10.0 mi Calm Calm - N/A   Overcast
10:16 PM 73.4 °F - 37.4 °F 27% 29.73 in 10.0 mi WNW 3.5 mph - N/A   Overcast
10:36 PM 73.4 °F - 37.4 °F 27% 29.74 in 10.0 mi Calm Calm - N/A   Overcast
10:56 PM 71.6 °F - 37.4 °F 29% 29.74 in 10.0 mi Calm Calm - N/A   Overcast
11:36 PM 69.8 °F - 35.6 °F 28% 29.74 in 10.0 mi Calm Calm - N/A   Overcast
11:56 PM 69.8 °F - 35.6 °F 28% 29.74 in 10.0 mi NW 3.5 mph - N/A   Overcast